Location: Falkner
(32.6954°N, 86.0502°W)
Time: 11:31:07
(UTC+00:00)

Aureole 3 Rocket - Pass Details

Date: 29 October 2020
Orbit: 399 x 1739 km, 82.5° (Epoch: 04 December)

Event Time Altitude Azimuth Distance (km) Brightness Sun altitude
Rises 23:21:57 0° 180° (S) 2,475 6.3 -6.2°
Reaches altitude 10° 23:23:46 10° 177° (S) 1,697 5.5 -6.6°
Maximum altitude 23:27:23 71° 94° (E) 632 2.9 -7.3°
Drops below altitude 10° 23:32:19 10° 10° (N) 2,297 5.8 -8.3°
Sets 23:35:06 0° 9° (N) 3,454 6.7 -8.9°
